Location: *
(49.8044°N, 4.0558°E)
Time: 12:46:53
(UTC+00:00)

COSMOS 2428 - Pass Details

Date: 09 April 2020
Orbit: 846 x 856 km, 70.9° (Epoch: 27 May)

Event Time Altitude Azimuth Distance (km) Brightness Sun altitude
Rises 22:54:33 0° 333° (NNW) 3,427 7.0 -31.1°
Reaches altitude 10° 22:57:29 10° 347° (NNW) 2,486 6.0 -31.2°
Maximum altitude 23:02:07 25° 41° (NE) 1,665 4.5 -31.4°
Enters shadow 23:03:39 22° 65° (ENE) 1,772 4.4 -31.5°
